Regional Weather Roundup
Issued by NWS Upton, NY

Current Version | Previous Version | Graphics & Text | Print | Product List | Glossary Off
Versions: 1 2 3 4 5 6 7 8 9 10 11 12 13 14 15 16 17 18 19 20 21 22 23 24 25 26 27 28 29 30 31 32 33 34 35 36 37 38 39 40 41 42 43 44 45

000
ASUS41 KOKX 250305
RWROKX

REGIONAL WEATHER ROUNDUP
NATIONAL WEATHER SERVICE NEW YORK NY
1000 PM EST WED DEC 24 2014

NOTE: "FAIR" INDICATES FEW OR NO CLOUDS BELOW 12,000 FEET WITH NO
SIGNIFICANT WEATHER AND/OR OBSTRUCTIONS TO VISIBILITY.

NYZ071-072-176-178-NJZ106-104-250400-
NEW YORK CITY METRO AREA


CITY           SKY/WX    TMP DP  RH WIND       PRES   REMARKS
CENTRAL PARK   CLOUDY    56  56 100 S3        29.60R FOG
LAGUARDIA APRT FOG       54  54 100 S7        29.58S VSB 1/4
KENNEDY INTL   FOG       52  50  93 SW8       29.61R VSB 1/4
NEWARK/LIBERTY LGT RAIN  54  54 100 CALM      29.57S VSB 1/4
BRNX BOT. GARD   N/A     54  54 100 S2        29.58R
TETERBORO      DRZL/FOG  51  51 100 CALM      29.57R VSB 1
$$

NYZ177-179-078>081-250400-
LONG ISLAND NEW YORK

CITY           SKY/WX    TMP DP  RH WIND       PRES   REMARKS
FARMINGDALE    FOG       54  54 100 SW15      29.59F VSB 1/2
ISLIP          FOG       56  55  97 S14       29.57F VSB 1/8
SHIRLEY        CLOUDY    57  56  96 S14       29.61F FOG
WESTHAMPTON    LGT RAIN  59  58  96 S15G23    29.63F FOG
MONTAUK POINT    N/A     59  58  96 S9        29.63F
$$

NYZ052-065-067-250400-
HUDSON VALLEY

CITY           SKY/WX    TMP DP  RH WIND       PRES   REMARKS
WHITE PLAINS   FOG       55  55 100 S5        29.57F VSB 1/8
NEWBURGH       CLOUDY    46  46 100 CALM      29.57F FOG
MONTGOMERY     FOG       47  46  97 CALM      29.54S VSB 3/4
POUGHKEEPSIE   CLOUDY    48  46  93 CALM      29.55S FOG
ALBANY         DRIZZLE   48  46  93 SE3       29.50F FOG
$$

NJZ001-105-106-008-010-013-015-019>022-104-250400-
NEW JERSEY

CITY           SKY/WX    TMP DP  RH WIND       PRES   REMARKS
NEWARK/LIBERTY LGT RAIN  54  54 100 CALM      29.57S VSB 1/4
TETERBORO      DRZL/FOG  51  51 100 CALM      29.57R VSB 1
CALDWELL       CLOUDY    49  49 100 SE3       29.56F FOG
MORRISTOWN     FOG       50  48  93 CALM      29.56F VSB 1
SOMERVILLE     CLOUDY    51  50  96 CALM      29.54F FOG
SUSSEX         FOG       46  45  96 CALM      29.54F VSB 1/4
ANDOVER        NOT AVBL
TRENTON        CLOUDY    61  60  97 S7        29.53F FOG
MILLVILLE      LGT RAIN  58  58 100 VRB6      29.58F FOG
ATLANTIC CITY  FOG       56  55  97 S7        29.62F VSB 1/2
WRIGHTSTOWN    CLOUDY    62  62 100 S10       29.56F
TOMS RIVER     CLOUDY    61  59  94 S8        29.61R
BELMAR         CLOUDY    61  57  88 SW10      29.60R
$$

PAZ047>061-062-071-250400-
EASTERN PENNSYLVANIA

CITY           SKY/WX    TMP DP  RH WIND       PRES   REMARKS
PHILADELPHIA   CLOUDY    62  59  90 SW17      29.57F
ALLENTOWN      CLOUDY    57  54  89 VRB3      29.54F
SCRANTON       CLOUDY    57  53  86 S9G20     29.49F
$$

CTZ002-004>006-009-010-012-RIZ004-006-007-MAZ004-011-015-250400-
SOUTHERN NEW ENGLAND
 IN CT

CITY           SKY/WX    TMP DP  RH WIND       PRES   REMARKS
BRADLEY INTL   DRIZZLE   43  41  93 CALM      29.60F FOG
HARTFORD       CLOUDY    43  42  97 SE7       29.60F FOG
DANBURY        CLOUDY    57  54  89 S5        29.59R FOG
WTRBRY/OXFORD  CLOUDY    57  54  88 SW7       29.58F
BRIDGEPORT     CLOUDY    55  55 100 S14       29.58S FOG
MERIDEN        CLOUDY    44  42  93 NW3       29.59F FOG
NEW HAVEN      FOG       57  53  86 S7        29.59F VSB 1/2
CHESTER        LGT RAIN  61  61 100 SW12G20   29.61F
GROTON         LGT RAIN  53  53 100 S9        29.63S VSB 1/2
WILLIMANTIC    LGT RAIN  63  61  93 S9        29.60F FOG

 IN RI

CITY           SKY/WX    TMP DP  RH WIND       PRES   REMARKS
PROVIDENCE     LGT RAIN  60  59  96 S13       29.63F FOG
BLOCK ISLAND   CLOUDY    59  57  94 S20G25    29.64F
WESTERLY       LGT RAIN  57  57 100 S15G22    29.64F FOG

 IN MA

CITY           SKY/WX    TMP DP  RH WIND       PRES   REMARKS
BOSTON         DRZL/FOG  45  45 100 CALM      29.62F VSB 1
WORCESTER      FOG       41  41 100 NW3       29.62S VSB 1
WESTFIELD      CLOUDY    42  40  92 N6        29.61F FOG
PROVINCETOWN   CLOUDY    57  55  94 S16G26    29.67F
NANTUCKET      LGT RAIN  56  55  97 S17       29.71F VSB 3/4
$$

ANZ330-335-338-340-345-350-353-355-250400-
COASTAL MARINE OBSERVATIONS


STATION/POSITION TIME  SKY/WX   TEMP    WIND        PRES    VSBY  WAVE
                                AIR SEA DIR/SP/G                  HT/PER
                 (UTC)          (F)     (DEG/KT/KT) (MB)    (MI)  (FT/S)
NY HARB ENTRANCE 0300            51 47  210/ 17/ 19 1002.3          5/ 6
4S FIRE IS       0300               47                N/A           6/ 5
20S FIRE ISLAND  0200            56 51              1003.5          5/ 5
23SW MTP         0300                                 N/A           6/ 7
HUDSON CANYON    0300            62 55  200/ 21/ 27 1004.2          7/ 6
EXECUTION ROCKS  0300            51 42  240/  6/ 10   N/A
WESTERN LI SOUND 0300            53     170/  8/ 12   N/A           1/ 3
CENTRAL LI SOUND 0200            52 44  220/ 10/ 12   N/A           3/ 4
EASTERN LI SOUND NOT AVBL
ROBBINS REEF     0300            54                 1000.5
$$


>>>>>>>>>>>>>>>>>>>>>>>>>>>> KEY <<<<<<<<<<<<<<<<<<<<<<<<<<<
>                                                          <
>     SKY/WX - SKY CONDITION/PRESENT WEATHER               <
>     TMP    - TEMPERATURE IN FAHRENHEIT                   <
>     DP     - DEWPOINT IN FAHRENHEIT                      <
>     RH     - RELATIVE HUMIDITY IN PERCENT                <
>     WIND   - DIRECTION AND SPEED IN MPH                  <
>     PRES   - MEAN SEA LEVEL PRESSURE IN INCHES OF HG     <
>     WCI    - WIND CHILL INDEX                            <
>     VSB    - VISIBILITY IN MILES                         <
>     HX     - HEAT INDEX                                  <
>     TC     - TEMPERATURE IN CELSIUS                      <
>     VRB    - VARIABLE WIND DIRECTION                     <
>                                                          <
>>>>>>>>>>>>>>>>>>>>>>>>>>>> KEY <<<<<<<<<<<<<<<<<<<<<<<<<<<





USA.gov is the U.S. government's official web portal to all federal, state and local government web resources and services.